This is the latest recevied weather packets stored in our database for station/object KB1JDX. If no packets are shown the sender has not sent any weather packets the latest 10 day(s).
| Time | Temp. | Humidity | Pressure | Rain* | Wind** | Luminosity | Snow |
|---|---|---|---|---|---|---|---|
| 1787596695 | 26.67° C | 48% | 1012.6 hPa | 0 mm | 0 m/s | - | - |
| 1787595493 | 26.67° C | 49% | 1012.5 hPa | 0 mm | 0 m/s | - | - |
| 1787595426 | 26.67° C | 49% | 1012.5 hPa | 0 mm | 0 m/s | - | - |
| 1787594295 | 26.67° C | 48% | 1012.5 hPa | 0 mm | 0 m/s | - | - |
| 1787593092 | 26.67° C | 47% | 1012.8 hPa | 0 mm | 1.79 m/s, 211° | - | - |
| 1787591892 | 26.67° C | 48% | 1013 hPa | 0 mm | 0 m/s | - | - |
| 1787591826 | 26.67° C | 50% | 1013.1 hPa | 0 mm | 0.45 m/s, 216° | - | - |
| 1787590695 | 26.67° C | 49% | 1013.4 hPa | 0 mm | 2.24 m/s, 220° | - | - |
| 1787589493 | 26.11° C | 49% | 1013.4 hPa | 0 mm | 0 m/s | - | - |
| 1787588226 | 26.11° C | 49% | 1013.3 hPa | 0 mm | 0.89 m/s, 190° | - | - |
| 1787587093 | 26.11° C | 49% | 1013.4 hPa | 0 mm | 0.89 m/s, 211° | - | - |
| 1787585893 | 25° C | 48% | 1013.5 hPa | 0 mm | 0 m/s | - | - |
| 1787584693 | 25° C | 46% | 1013.6 hPa | 0 mm | 1.34 m/s, 188° | - | - |
| 1787584626 | 25° C | 46% | 1013.6 hPa | 0 mm | 0 m/s | - | - |
| 1787583493 | 24.44° C | 44% | 1013.7 hPa | 0 mm | 4.47 m/s, 211° | - | - |
| 1787582294 | 23.33° C | 34% | 1013.7 hPa | 0 mm | 0 m/s | - | - |
| 1787581094 | 22.78° C | 15% | 1013.7 hPa | 0 mm | 0 m/s | - | - |
| 1787581026 | 22.22° C | 13% | 1013.6 hPa | 0 mm | 0 m/s | - | - |
| 1787579895 | 21.67° C | 100% | 1013.6 hPa | 0 mm | 0 m/s | - | - |
| 1787578692 | 20.56° C | 100% | 1013.4 hPa | 0 mm | 0 m/s | - | - |
| 1787577492 | 19.44° C | 100% | 1013.4 hPa | 0 mm | 0 m/s | - | - |
| 1787577426 | 19.44° C | 100% | 1013.4 hPa | 0 mm | 0 m/s | - | - |
| 1787573826 | 17.78° C | 100% | 1013.2 hPa | 0 mm | 0 m/s | - | - |
| 1787570226 | 16.67° C | 100% | 1013.2 hPa | 0 mm | 0 m/s | - | - |
| 1787569095 | 16.67° C | 100% | 1013.2 hPa | 0 mm | 0 m/s | - | - |
* Rain latest hour (hover to see other rain measurements)
** Current wind speed in m/s (hover to see current wind gust speed)